Flag for USA

Past Weather in Philadelphia, Pennsylvania, USA — Yesterday and Last 2 Weeks

Now
69 °F

Scattered clouds.


Feels Like: 69 °F
Forecast: 69 / 58 °F
Wind: 13 mph from West

Location: Philadelphia International Airport
Current Time: Sep 30, 2020 at 2:54:35 pm
Latest Report: Sep 30, 2020 at 1:54 pm
Visibility: 10 mi
Pressure29.79 "Hg
Humidity: 45%
Dew Point: 47 °F
Location of PhiladelphiaLocation

Past Weather in Philadelphia — Graph

°F

Philadelphia Temperature Yesterday

Maximum temperature yesterday: 76 °F (at 1:54 pm)
Minimum temperature yesterday: 66 °F (at 1:54 am)
Average temperature yesterday: 71 °F

High & Low Weather Summary for the Past Weeks

 TemperatureHumidityPressure
High82 °F (Sep 28, 2:54 pm)100% (Sep 25, 4:33 am)30.57 "Hg (Sep 25, 4:33 am)
Low47 °F (Sep 20, 5:54 am)25% (Sep 22, 2:54 pm)29.55 "Hg (Sep 30, 3:54 am)
Average66 °F72%30.05 "Hg
* Reported Sep 15 12:54 pm — Sep 30 12:54 pm, Philadelphia. Weather by CustomWeather, © 2020

Note: Actual official high and low records may vary slightly from our data, if they occured in-between our weather recording intervals... More about our weather records

Philadelphia Weather History for the Previous 24 Hours

Scroll right to see more
 ConditionsComfort  
Time TempWeatherWind HumidityBarometerVisibility
12:54 pm
Wed, Sep 30
69 °FScattered clouds.15 mph44%29.80 "Hg10 mi
11:54 am67 °FScattered clouds.20 mph55%29.80 "Hg10 mi
10:54 am64 °FScattered clouds.16 mph61%29.80 "Hg10 mi
9:54 am62 °FScattered clouds.18 mph73%29.78 "Hg10 mi
8:54 am60 °FScattered clouds.21 mph78%29.74 "Hg10 mi
7:54 am58 °FBroken clouds.15 mph87%29.71 "Hg10 mi
7:17 am58 °FBroken clouds.14 mph87%29.69 "Hg10 mi
7:00 am58 °FMostly cloudy.15 mph87%29.68 "Hg10 mi
6:27 am58 °FLight rain. Overcast.17 mph93%29.67 "Hg8 mi
6:13 am59 °FLight rain. Fog.22 mph93%29.65 "Hg6 mi
5:54 am59 °FLight rain. Fog.22 mph96%29.65 "Hg5 mi
5:38 am60 °FLight rain. Overcast.23 mph93%29.64 "Hg7 mi
5:20 am60 °FLight rain. Fog.24 mph93%29.62 "Hg5 mi
4:54 am59 °FMostly cloudy.No wind90%29.55 "Hg10 mi
3:54 am59 °FMostly cloudy.7 mph90%29.55 "Hg10 mi
2:54 am61 °FLight rain. Overcast.5 mph90%29.58 "Hg10 mi
2:46 am61 °FLight rain. Overcast.9 mph90%29.59 "Hg10 mi
2:32 am61 °FLight rain. Overcast.12 mph90%29.58 "Hg8 mi
2:23 am61 °FLight rain. Fog.9 mph90%29.58 "Hg5 mi
1:54 am61 °FHeavy rain. Fog.20 mph93%29.57 "Hg2 mi
1:40 am63 °FHeavy rain. Fog.13 mph97%29.58 "Hg2 mi
1:13 am66 °FHeavy rain. Fog.18 mph93%29.56 "Hg6 mi
1:08 am66 °FHeavy rain. Mostly cloudy.21 mph93%29.56 "Hg10 mi
12:50 am72 °FLight rain. Mostly cloudy.12 mph100%29.57 "Hg10 mi
12:10 am73 °FMostly cloudy.13 mph90%29.59 "Hg10 mi
11:54 pm
Tue, Sep 29
72 °FMostly cloudy.13 mph93%29.60 "Hg8 mi
11:44 pm72 °FMostly cloudy.12 mph93%29.61 "Hg8 mi
11:17 pm72 °FLight rain. Fog.12 mph93%29.62 "Hg6 mi
10:54 pm72 °FLight rain. Mostly cloudy.12 mph93%29.63 "Hg7 mi
10:35 pm72 °FLight rain. Mostly cloudy.9 mph93%29.64 "Hg7 mi
10:08 pm72 °FLight rain. Overcast.12 mph93%29.65 "Hg10 mi
8:54 pm71 °FLight rain. Mostly cloudy.7 mph96%29.70 "Hg10 mi
7:54 pm72 °FHeavy rain. Fog.13 mph91%29.71 "Hg2 mi
6:54 pm72 °FLight rain. Overcast.13 mph93%29.74 "Hg10 mi
6:32 pm71 °FMostly cloudy.5 mph96%29.74 "Hg10 mi
5:54 pm71 °FCloudy.5 mph96%29.74 "Hg7 mi
5:13 pm70 °FRain. Fog.6 mph97%29.76 "Hg5 mi
5:07 pm71 °FHeavy rain. Fog.6 mph96%29.77 "Hg2 mi
4:54 pm71 °FHeavy rain. Fog.9 mph96%29.77 "Hg2 mi
4:21 pm72 °FHeavy rain. Fog.5 mph93%29.77 "Hg2 mi
3:54 pm72 °FLight rain. Mostly cloudy.7 mph93%29.78 "Hg9 mi
3:22 pm71 °FLight rain. Fog.7 mph96%29.79 "Hg4 mi
2:58 pm72 °FHeavy rain. Fog.12 mph93%29.80 "Hg1 mi
Weather by CustomWeather, © 2020

See weather overview